Location: Unspecified
(43.4354°N, 0.0000°E)
Time: 22:17:37
(UTC+00:00)

A-11 Canister half - Pass Details

Date: 27 June 2019
Orbit: 1514 x 1686 km, 47.2° (Epoch: 12 October)

Event Time Altitude Azimuth Distance (km) Brightness Sun altitude
Rises 13:43:23 0° 289° (WNW) 4,865 11.9 61.2°
Reaches altitude 10° 13:46:34 10° 290° (WNW) 3,856 11.5 60.7°
Maximum altitude 13:56:25 86° 19° (NNE) 1,587 10.3 59.2°
Drops below altitude 10° 14:05:53 10° 110° (ESE) 3,714 10.9 57.7°
Sets 14:08:52 0° 111° (ESE) 4,680 11.3 57.2°
